Time,TemperatureF,DewpointF,PressureIn,WindDirection,WindDirectionDegrees,WindSpeedMPH,WindSpeedGustMPH,Humidity,HourlyPrecipIn,Conditions,Clouds,dailyrainin,SoftwareType,DateUTC
2013-01-18 00:07:00,29.5,27.0,30.50,ENE,61,0.0,0.0,90,0.00,,,0.00,weatherlink.com 1.10,2013-01-18 06:07:00,
2013-01-18 00:22:00,28.8,27.0,30.51,ENE,61,0.0,0.0,91,0.00,,,0.00,weatherlink.com 1.10,2013-01-18 06:22:00,
2013-01-18 00:38:00,28.2,26.0,30.51,ENE,61,0.0,0.0,92,0.00,,,0.00,weatherlink.com 1.10,2013-01-18 06:38:00,
2013-01-18 00:53:00,27.9,26.0,30.51,ENE,61,0.0,0.0,93,0.00,,,0.00,weatherlink.com 1.10,2013-01-18 06:53:00,
2013-01-18 01:08:00,27.6,26.0,30.51,ENE,61,0.0,0.0,93,0.00,,,0.00,weatherlink.com 1.10,2013-01-18 07:08:00,
2013-01-18 01:23:00,27.3,26.0,30.52,ENE,61,0.0,0.0,94,0.00,,,0.00,weatherlink.com 1.10,2013-01-18 07:23:00,
2013-01-18 01:38:00,27.0,26.0,30.52,ENE,61,0.0,0.0,94,0.00,,,0.00,weatherlink.com 1.10,2013-01-18 07:38:00,
2013-01-18 01:53:00,26.7,25.0,30.53,ENE,61,0.0,0.0,94,0.00,,,0.00,weatherlink.com 1.10,2013-01-18 07:53:00,
2013-01-18 02:08:00,26.8,26.0,30.54,ENE,61,0.0,0.0,95,0.00,,,0.00,weatherlink.com 1.10,2013-01-18 08:08:00,
2013-01-18 02:23:00,26.5,25.0,30.54,ENE,60,0.0,0.0,95,0.00,,,0.00,weatherlink.com 1.10,2013-01-18 08:23:00,
2013-01-18 02:38:00,26.6,25.0,30.54,ENE,61,0.0,0.0,95,0.00,,,0.00,weatherlink.com 1.10,2013-01-18 08:38:00,
2013-01-18 02:53:00,26.3,25.0,30.54,ENE,61,0.0,0.0,95,0.00,,,0.00,weatherlink.com 1.10,2013-01-18 08:53:00,
2013-01-18 03:08:00,25.9,25.0,30.54,ENE,60,0.0,0.0,95,0.00,,,0.00,weatherlink.com 1.10,2013-01-18 09:08:00,
2013-01-18 03:23:00,25.8,25.0,30.54,ENE,61,0.0,0.0,96,0.00,,,0.00,weatherlink.com 1.10,2013-01-18 09:23:00,
2013-01-18 03:38:00,26.0,25.0,30.54,ENE,61,0.0,0.0,96,0.00,,,0.00,weatherlink.com 1.10,2013-01-18 09:38:00,
2013-01-18 03:53:00,25.4,24.0,30.54,ENE,60,0.0,0.0,95,0.00,,,0.00,weatherlink.com 1.10,2013-01-18 09:53:00,
2013-01-18 04:08:00,25.2,24.0,30.55,ENE,60,0.0,0.0,96,0.00,,,0.00,weatherlink.com 1.10,2013-01-18 10:08:00,
2013-01-18 04:23:00,25.1,24.0,30.54,ENE,61,0.0,0.0,96,0.00,,,0.00,weatherlink.com 1.10,2013-01-18 10:23:00,
2013-01-18 04:38:00,24.7,24.0,30.55,ENE,61,0.0,0.0,96,0.00,,,0.00,weatherlink.com 1.10,2013-01-18 10:38:00,
2013-01-18 04:53:00,25.0,24.0,30.55,ENE,60,0.0,0.0,96,0.00,,,0.00,weatherlink.com 1.10,2013-01-18 10:53:00,
2013-01-18 05:08:00,25.2,24.0,30.54,ENE,60,0.0,0.0,96,0.00,,,0.00,weatherlink.com 1.10,2013-01-18 11:08:00,
2013-01-18 05:23:00,24.7,24.0,30.55,ENE,61,0.0,0.0,96,0.00,,,0.00,weatherlink.com 1.10,2013-01-18 11:23:00,
2013-01-18 05:38:00,24.4,24.0,30.54,ENE,60,0.0,0.0,96,0.00,,,0.00,weatherlink.com 1.10,2013-01-18 11:38:00,
2013-01-18 05:53:00,24.2,23.0,30.55,ENE,61,0.0,0.0,96,0.00,,,0.00,weatherlink.com 1.10,2013-01-18 11:53:00,
2013-01-18 06:08:00,24.0,23.0,30.55,ENE,61,0.0,0.0,96,0.00,,,0.00,weatherlink.com 1.10,2013-01-18 12:08:00,
2013-01-18 06:23:00,24.4,24.0,30.55,ENE,60,0.0,0.0,96,0.00,,,0.00,weatherlink.com 1.10,2013-01-18 12:23:00,
2013-01-18 06:38:00,24.2,23.0,30.56,ENE,61,0.0,0.0,96,0.00,,,0.00,weatherlink.com 1.10,2013-01-18 12:38:00,
2013-01-18 06:53:00,24.6,24.0,30.56,ENE,60,0.0,0.0,96,0.00,,,0.00,weatherlink.com 1.10,2013-01-18 12:53:00,
2013-01-18 07:08:00,24.5,24.0,30.56,ENE,61,0.0,0.0,96,0.00,,,0.00,weatherlink.com 1.10,2013-01-18 13:08:00,
2013-01-18 07:23:00,24.5,24.0,30.56,ENE,61,0.0,0.0,96,0.00,,,0.00,weatherlink.com 1.10,2013-01-18 13:23:00,
2013-01-18 07:38:00,24.4,24.0,30.57,ENE,60,0.0,0.0,96,0.00,,,0.00,weatherlink.com 1.10,2013-01-18 13:38:00,
2013-01-18 07:53:00,25.0,24.0,30.57,ENE,61,0.0,0.0,96,0.00,,,0.00,weatherlink.com 1.10,2013-01-18 13:53:00,
2013-01-18 08:08:00,26.1,25.0,30.57,ENE,61,0.0,0.0,97,0.00,,,0.00,weatherlink.com 1.10,2013-01-18 14:08:00,
2013-01-18 08:23:00,26.6,26.0,30.58,ENE,60,0.0,0.0,97,0.00,,,0.00,weatherlink.com 1.10,2013-01-18 14:23:00,
2013-01-18 08:38:00,27.8,27.0,30.59,ENE,61,0.0,0.0,97,0.00,,,0.00,weatherlink.com 1.10,2013-01-18 14:38:00,
2013-01-18 08:53:00,29.0,28.0,30.59,ENE,61,0.0,1.0,97,0.00,,,0.00,weatherlink.com 1.10,2013-01-18 14:53:00,
2013-01-18 09:08:00,30.4,30.0,30.59,NNE,18,0.0,1.0,97,0.00,,,0.00,weatherlink.com 1.10,2013-01-18 15:08:00,
2013-01-18 09:23:00,32.0,30.0,30.60,NNE,22,0.0,1.0,92,0.00,,,0.00,weatherlink.com 1.10,2013-01-18 15:23:00,
2013-01-18 09:38:00,33.0,30.0,30.59,North,349,0.0,2.0,88,0.00,,,0.00,weatherlink.com 1.10,2013-01-18 15:38:00,
2013-01-18 09:54:00,34.6,31.0,30.60,NW,326,0.0,1.0,85,0.00,,,0.00,weatherlink.com 1.10,2013-01-18 15:54:00,
2013-01-18 10:09:00,35.8,31.0,30.59,NNE,13,0.0,2.0,82,0.00,,,0.00,weatherlink.com 1.10,2013-01-18 16:09:00,
2013-01-18 10:24:00,37.0,31.0,30.59,ENE,70,1.0,2.0,80,0.00,,,0.00,weatherlink.com 1.10,2013-01-18 16:24:00,
2013-01-18 10:39:00,38.4,31.0,30.59,NE,53,1.0,3.0,76,0.00,,,0.00,weatherlink.com 1.10,2013-01-18 16:39:00,
2013-01-18 10:54:00,39.6,31.0,30.58,East,91,0.0,3.0,71,0.00,,,0.00,weatherlink.com 1.10,2013-01-18 16:54:00,
2013-01-18 11:09:00,40.9,31.0,30.58,NNE,27,0.0,3.0,68,0.00,,,0.00,weatherlink.com 1.10,2013-01-18 17:09:00,
2013-01-18 11:24:00,41.8,31.0,30.57,East,84,1.0,2.0,66,0.00,,,0.00,weatherlink.com 1.10,2013-01-18 17:24:00,
2013-01-18 11:39:00,42.5,31.0,30.55,North,5,1.0,4.0,65,0.00,,,0.00,weatherlink.com 1.10,2013-01-18 17:39:00,
2013-01-18 11:54:00,43.3,31.0,30.54,NNE,27,2.0,3.0,62,0.00,,,0.00,weatherlink.com 1.10,2013-01-18 17:54:00,
2013-01-18 12:09:00,44.2,30.0,30.53,NNE,20,1.0,3.0,58,0.00,,,0.00,weatherlink.com 1.10,2013-01-18 18:09:00,
2013-01-18 12:24:00,45.5,31.0,30.52,WSW,247,0.0,3.0,58,0.00,,,0.00,weatherlink.com 1.10,2013-01-18 18:24:00,
2013-01-18 12:39:00,46.3,30.0,30.51,North,4,0.0,2.0,54,0.00,,,0.00,weatherlink.com 1.10,2013-01-18 18:39:00,
2013-01-18 12:54:00,47.1,30.0,30.50,NNW,343,0.0,2.0,52,0.00,,,0.00,weatherlink.com 1.10,2013-01-18 18:54:00,
2013-01-18 13:09:00,47.6,29.0,30.49,North,358,0.0,3.0,49,0.00,,,0.00,weatherlink.com 1.10,2013-01-18 19:09:00,
2013-01-18 13:24:00,48.6,28.0,30.49,NNE,28,2.0,3.0,46,0.00,,,0.00,weatherlink.com 1.10,2013-01-18 19:24:00,
2013-01-18 13:39:00,49.5,28.0,30.48,NNE,30,1.0,2.0,44,0.00,,,0.00,weatherlink.com 1.10,2013-01-18 19:39:00,
2013-01-18 13:54:00,49.5,28.0,30.47,SSE,165,0.0,2.0,44,0.00,,,0.00,weatherlink.com 1.10,2013-01-18 19:54:00,
2013-01-18 14:12:00,49.9,29.0,30.46,SW,227,1.0,1.0,44,0.00,,,0.00,weatherlink.com 1.10,2013-01-18 20:12:00,
2013-01-18 14:25:00,50.4,30.0,30.46,East,84,0.0,1.0,46,0.00,,,0.00,weatherlink.com 1.10,2013-01-18 20:25:00,
2013-01-18 14:40:00,50.9,28.0,30.46,SW,222,0.0,2.0,41,0.00,,,0.00,weatherlink.com 1.10,2013-01-18 20:40:00,
2013-01-18 14:55:00,51.2,27.0,30.45,WSW,257,0.0,1.0,39,0.00,,,0.00,weatherlink.com 1.10,2013-01-18 20:55:00,
2013-01-18 15:10:00,51.6,28.0,30.44,SW,218,1.0,2.0,40,0.00,,,0.00,weatherlink.com 1.10,2013-01-18 21:10:00,
2013-01-18 15:25:00,51.2,29.0,30.44,SE,127,0.0,1.0,42,0.00,,,0.00,weatherlink.com 1.10,2013-01-18 21:25:00,
2013-01-18 15:40:00,51.1,29.0,30.44,South,190,0.0,1.0,42,0.00,,,0.00,weatherlink.com 1.10,2013-01-18 21:40:00,
2013-01-18 15:55:00,51.1,27.0,30.43,SW,219,0.0,1.0,40,0.00,,,0.00,weatherlink.com 1.10,2013-01-18 21:55:00,
2013-01-18 16:10:00,50.8,29.0,30.43,South,169,0.0,1.0,44,0.00,,,0.00,weatherlink.com 1.10,2013-01-18 22:10:00,
2013-01-18 16:25:00,49.9,27.0,30.43,NNE,15,0.0,1.0,42,0.00,,,0.00,weatherlink.com 1.10,2013-01-18 22:25:00,
2013-01-18 16:40:00,49.6,28.0,30.43,SSE,163,0.0,1.0,43,0.00,,,0.00,weatherlink.com 1.10,2013-01-18 22:40:00,
2013-01-18 16:55:00,48.4,29.0,30.43,SSE,160,0.0,1.0,47,0.00,,,0.00,weatherlink.com 1.10,2013-01-18 22:55:00,
2013-01-18 17:10:00,46.4,29.0,30.43,SSE,161,0.0,1.0,52,0.00,,,0.00,weatherlink.com 1.10,2013-01-18 23:10:00,
2013-01-18 17:25:00,45.2,30.0,30.42,SSE,160,0.0,0.0,55,0.00,,,0.00,weatherlink.com 1.10,2013-01-18 23:25:00,
2013-01-18 17:40:00,43.6,30.0,30.42,SSE,161,0.0,1.0,59,0.00,,,0.00,weatherlink.com 1.10,2013-01-18 23:40:00,
2013-01-18 17:55:00,42.4,30.0,30.42,SE,127,0.0,1.0,63,0.00,,,0.00,weatherlink.com 1.10,2013-01-18 23:55:00,
2013-01-18 18:10:00,41.3,29.0,30.42,SE,127,0.0,1.0,63,0.00,,,0.00,weatherlink.com 1.10,2013-01-19 00:10:00,
2013-01-18 18:25:00,40.4,30.0,30.41,SE,127,0.0,0.0,66,0.00,,,0.00,weatherlink.com 1.10,2013-01-19 00:25:00,
2013-01-18 18:40:00,39.3,29.0,30.42,SE,127,0.0,0.0,67,0.00,,,0.00,weatherlink.com 1.10,2013-01-19 00:40:00,
2013-01-18 18:55:00,38.8,29.0,30.42,SE,127,0.0,0.0,68,0.00,,,0.00,weatherlink.com 1.10,2013-01-19 00:55:00,
2013-01-18 19:10:00,37.7,29.0,30.41,SE,127,0.0,0.0,70,0.00,,,0.00,weatherlink.com 1.10,2013-01-19 01:10:00,
2013-01-18 19:25:00,37.1,29.0,30.41,SE,127,0.0,0.0,72,0.00,,,0.00,weatherlink.com 1.10,2013-01-19 01:25:00,
2013-01-18 19:40:00,36.3,29.0,30.41,SE,127,0.0,0.0,74,0.00,,,0.00,weatherlink.com 1.10,2013-01-19 01:40:00,
2013-01-18 19:55:00,35.6,29.0,30.41,SE,127,0.0,0.0,76,0.00,,,0.00,weatherlink.com 1.10,2013-01-19 01:55:00,
2013-01-18 20:10:00,35.0,29.0,30.41,SE,127,0.0,0.0,79,0.00,,,0.00,weatherlink.com 1.10,2013-01-19 02:10:00,
2013-01-18 20:25:00,35.4,29.0,30.41,SE,127,0.0,1.0,78,0.00,,,0.00,weatherlink.com 1.10,2013-01-19 02:25:00,
2013-01-18 20:40:00,35.2,29.0,30.41,SE,127,0.0,0.0,79,0.00,,,0.00,weatherlink.com 1.10,2013-01-19 02:40:00,
2013-01-18 20:55:00,34.5,29.0,30.40,SE,127,0.0,0.0,79,0.00,,,0.00,weatherlink.com 1.10,2013-01-19 02:55:00,
2013-01-18 21:10:00,34.2,29.0,30.39,SE,127,0.0,1.0,82,0.00,,,0.00,weatherlink.com 1.10,2013-01-19 03:10:00,
2013-01-18 21:25:00,33.2,28.0,30.40,SE,127,0.0,0.0,82,0.00,,,0.00,weatherlink.com 1.10,2013-01-19 03:25:00,
2013-01-18 21:40:00,32.8,28.0,30.39,SE,127,0.0,0.0,83,0.00,,,0.00,weatherlink.com 1.10,2013-01-19 03:40:00,
2013-01-18 21:55:00,32.7,29.0,30.39,SE,127,0.0,0.0,85,0.00,,,0.00,weatherlink.com 1.10,2013-01-19 03:55:00,
2013-01-18 22:11:00,32.5,28.0,30.38,SE,127,0.0,1.0,84,0.00,,,0.00,weatherlink.com 1.10,2013-01-19 04:11:00,
2013-01-18 22:26:00,34.5,29.0,30.38,SE,127,0.0,0.0,80,0.00,,,0.00,weatherlink.com 1.10,2013-01-19 04:26:00,
2013-01-18 22:41:00,34.7,29.0,30.38,SE,127,0.0,0.0,80,0.00,,,0.00,weatherlink.com 1.10,2013-01-19 04:41:00,
2013-01-18 22:56:00,35.5,30.0,30.37,SE,127,0.0,1.0,79,0.00,,,0.00,weatherlink.com 1.10,2013-01-19 04:56:00,
2013-01-18 23:11:00,35.8,30.0,30.37,SE,127,0.0,1.0,78,0.00,,,0.00,weatherlink.com 1.10,2013-01-19 05:11:00,
2013-01-18 23:26:00,35.7,30.0,30.37,SE,127,0.0,0.0,79,0.00,,,0.00,weatherlink.com 1.10,2013-01-19 05:26:00,
2013-01-18 23:41:00,35.7,30.0,30.37,SE,127,0.0,1.0,80,0.00,,,0.00,weatherlink.com 1.10,2013-01-19 05:41:00,
2013-01-18 23:56:00,35.9,30.0,30.37,SE,127,0.0,1.0,80,0.00,,,0.00,weatherlink.com 1.10,2013-01-19 05:56:00,